Вернуться в каталог

FENGYUN 1C DEB

LostSSO
NORAD 31775·DEBRIS·🇨🇳 China

Запущен May 10, 1999 с Taiyuan Satellite Launch Center

Loading…

Ближайшие Пролёты (ближайшие 24 часа)

TLE

УстаревшееSource: Space-Track

Эпоха: Sep 29, 2011, 03:18 UTC

1 31775U 99025CGA 11272.13812896 -.00000105  00000-0 -40584-4 0  9992
2 31775 099.1370 242.2837 0060171 072.0752 289.7628 13.99699462222039

Отслеживайте FENGYUN 1C DEB в реальном времени с AllMySat

Download on the App Store